Prestwick, United Kingdom

4:22 PM GMT on February 09, 2016 (GMT +0000)
Prestwick

Weather History for EGPK - May, 2013

Change the Weather History Date:

Wednesday, May 29, 2013

  Actual Average Record
Temperature  
Mean Temperature 54 °F -  
Max Temperature 66 °F 60 °F 66 °F (2008)
Min Temperature 42 °F 48 °F 41 °F (2007)
Degree Days  
Heating Degree Days 11    
Growing Degree Days 4 (Base 50)    
Moisture  
Dew Point 49 °F    
Average Humidity 74    
Maximum Humidity 94    
Minimum Humidity 52    
Precipitation  
Precipitation 0.00 in - - ()
Sea Level Pressure  
Sea Level Pressure 29.88 in    
Wind  
Wind Speed 5 mph ()    
Max Wind Speed 12 mph    
Max Gust Speed -    
Visibility 6.2 miles    
Events Rain    
Averages and records for this station are not official NWS values.
T = Trace of Precipitation, MM = Missing Value Source: Averaged Metar Reports

Daily Weather History Graph

Daily Weather History Graph

Search for Another Location

Airport or City:

Trip Planner

Search our weather history database for the weather conditions in past years. The results will help you decide how hot, cold, wet, or windy it might be!

Date:

Astronomy

May. 29, 2013 Rise Set
Actual Time 4:46 AM BST 9:45 PM BST
Civil Twilight 3:52 AM BST 10:40 PM BST
Nautical Twilight 2:10 AM BST 12:25 AM BST
Astronomical Twilight Sun does not rise Sun does not rise
Moon 12:33 AM BST (5/29) 9:57 AM BST (5/29)
Length of Visible Light 18h 48m
Length of Day
16h 58m
Waning Gibbous, 75% of the Moon is Illuminated
May 29
Waning Gibbous
May 31
Last Quarter
Jun 8
New
Jun 16
First Quarter
Jun 23
Full

Hourly Weather History & Observations

Time (BST) Temp. Dew Point Humidity Pressure Visibility Wind Dir Wind Speed Gust Speed Precip Events Conditions
12:20 AM 50.0 °F 44.6 °F 82% 29.77 in 6.2 mi NE 11.5 mph - N/A   Scattered Clouds
12:50 AM 48.2 °F 44.6 °F 87% 29.77 in 6.2 mi ENE 11.5 mph - N/A   Partly Cloudy
1:50 AM 48.2 °F 42.8 °F 82% 29.77 in 6.2 mi ENE 8.1 mph - N/A   Partly Cloudy
4:50 AM 44.6 °F 41.0 °F 87% 29.83 in 6.2 mi Calm Calm - N/A   Partly Cloudy
5:50 AM 42.8 °F 41.0 °F 93% 29.83 in 6.2 mi Calm Calm - N/A   Partly Cloudy
6:20 AM 44.6 °F 41.0 °F 87% 29.83 in 6.2 mi Calm Calm - N/A   Scattered Clouds
6:50 AM 46.4 °F 42.8 °F 87% 29.86 in 6.2 mi WNW 2.3 mph - N/A   Scattered Clouds
7:20 AM 48.2 °F 44.6 °F 87% 29.86 in 6.2 mi Calm Calm - N/A   Scattered Clouds
7:50 AM 50.0 °F 44.6 °F 82% 29.86 in 6.2 mi Calm Calm - N/A   Scattered Clouds
8:20 AM 50.0 °F 46.4 °F 87% 29.86 in 6.2 mi Variable 3.5 mph - N/A   Scattered Clouds
8:50 AM 53.6 °F 46.4 °F 77% 29.86 in 6.2 mi Calm Calm - N/A   Scattered Clouds
9:20 AM 53.6 °F 46.4 °F 77% 29.86 in 6.2 mi NNW 5.8 mph - N/A   Scattered Clouds
9:50 AM 57.2 °F 46.4 °F 67% 29.86 in 6.2 mi Variable 2.3 mph - N/A   Partly Cloudy
10:20 AM 57.2 °F 46.4 °F 67% 29.86 in 6.2 mi West 5.8 mph - N/A   Partly Cloudy
10:50 AM 59.0 °F 48.2 °F 67% 29.86 in - West 5.8 mph - N/A   Clear
11:20 AM 59.0 °F 48.2 °F 67% 29.86 in - West 8.1 mph - N/A   Clear
11:50 AM 62.6 °F 51.8 °F 68% 29.86 in 6.2 mi Variable 5.8 mph - N/A   Partly Cloudy
12:20 PM 66.2 °F 48.2 °F 52% 29.86 in 6.2 mi NNE 10.4 mph - N/A   Partly Cloudy
12:50 PM 66.2 °F 48.2 °F 52% 29.89 in 6.2 mi NNE 10.4 mph - N/A   Partly Cloudy
1:20 PM 64.4 °F 50.0 °F 59% 29.89 in 6.2 mi North 4.6 mph - N/A   Partly Cloudy
1:50 PM 66.2 °F 50.0 °F 56% 29.89 in 6.2 mi North 6.9 mph - N/A   Partly Cloudy
2:20 PM 64.4 °F 48.2 °F 56% 29.89 in 6.2 mi North 5.8 mph - N/A   Partly Cloudy
2:50 PM 64.4 °F 50.0 °F 59% 29.89 in 6.2 mi North 8.1 mph - N/A   Partly Cloudy
3:20 PM 64.4 °F 50.0 °F 59% 29.89 in 6.2 mi North 6.9 mph - N/A   Scattered Clouds
3:50 PM 66.2 °F 50.0 °F 56% 29.89 in 6.2 mi NNE 5.8 mph - N/A   Scattered Clouds
4:20 PM 66.2 °F 50.0 °F 56% 29.89 in 6.2 mi North 6.9 mph - N/A   Scattered Clouds
4:50 PM 64.4 °F 50.0 °F 59% 29.89 in 6.2 mi North 8.1 mph - N/A   Scattered Clouds
5:20 PM 64.4 °F 50.0 °F 59% 29.89 in 6.2 mi NNE 8.1 mph - N/A   Scattered Clouds
5:50 PM 62.6 °F 51.8 °F 68% 29.92 in 6.2 mi NNE 5.8 mph - N/A   Partly Cloudy
6:20 PM 62.6 °F 51.8 °F 68% 29.92 in 6.2 mi NNE 8.1 mph - N/A   Partly Cloudy
6:50 PM 62.6 °F 51.8 °F 68% 29.92 in 6.2 mi NNE 4.6 mph - N/A   Partly Cloudy
7:20 PM 62.6 °F 53.6 °F 72% 29.92 in 6.2 mi Calm Calm - N/A   Partly Cloudy
7:50 PM 62.6 °F 53.6 °F 72% 29.92 in 6.2 mi NE 2.3 mph - N/A   Scattered Clouds
8:20 PM 59.0 °F 53.6 °F 82% 29.92 in 6.2 mi North 4.6 mph - N/A Rain Light Rain Showers
8:50 PM 59.0 °F 53.6 °F 82% 29.95 in 6.2 mi NE 4.6 mph - N/A   Scattered Clouds
9:20 PM 57.2 °F 53.6 °F 88% 29.95 in 6.2 mi NNW 5.8 mph - N/A   Mostly Cloudy
9:50 PM 57.2 °F 53.6 °F 88% 29.95 in 6.2 mi Calm Calm - N/A   Mostly Cloudy
10:20 PM 57.2 °F 53.6 °F 88% 29.95 in 6.2 mi Calm Calm - N/A Rain Light Rain Showers
10:50 PM 57.2 °F 53.6 °F 88% 29.95 in 6.2 mi Calm Calm - N/A Rain Light Rain Showers
11:20 PM 57.2 °F 53.6 °F 88% 29.95 in 6.2 mi Calm Calm - N/A Rain Light Rain Showers
11:50 PM 55.4 °F 53.6 °F 94% 29.95 in 6.2 mi Calm Calm - N/A   Mostly Cloudy